Location: Banff
(51.1667°N, 115.5667°W)
Time: 08:38:06
(UTC+00:00)

N. Korean satellite - Pass Details

Date: 02 December 2022
Orbit: 407 x 442 km, 97.3° (Epoch: 04 February)

Event Time Altitude Azimuth Distance (km) Brightness Sun altitude
Rises 12:34:21 0° 21° (NNE) 2,528 10.4 -25.8°
Reaches altitude 10° 12:36:35 10° 31° (NNE) 1,642 9.5 -25.5°
Maximum altitude 12:39:47 32° 96° (E) 825 8.3 -25.0°
Drops below altitude 10° 12:42:56 10° 162° (SSE) 1,612 9.5 -24.5°
Sets 12:45:06 0° 172° (S) 2,472 10.3 -24.2°
